CFG3HV LEPA-EDDH

Flight info

Callsign CFG3HV
Flight time 2h 30m
Altitude 32000
Route MEROS N853 LUMAS DCT MAXIR/N0453F340 DCT LUSOL DCT BODRU DCT OKTET DCT IRMAR DCT KINES DCT VANAS DCT ESOKO DCT GODRA/N0451F330 DCT LOKTA DCT TEDGO DCT HAREM DCT LOHRE DCT ELNAT/N0449F340 P605 NOLGO NOLGO3P
Aircraft A21N/M-SBDE3FGHIJ1J4J7LORVWXYZ/SB2D1G1

Departure

Time 2026-04-22 17:05
Airport Palma de Mallorca Airport (LEPA)

Arrival

Time 2026-04-22 19:35
Airport Hamburg Helmut Schmidt Airport (EDDH)
Time Latitude Longitude Altitude Speed Heading
2026-04-22 16:39 39.55004 2.73439 44 ft 0 kts 164°
2026-04-22 16:55 39.55005 2.73439 44 ft 2 kts 164°
2026-04-22 16:55 39.55027 2.73426 42 ft 2 kts 135°
2026-04-22 16:55 39.55037 2.73400 39 ft 2 kts 80°
2026-04-22 16:56 39.55034 2.73387 42 ft 2 kts 58°
2026-04-22 16:56 39.55036 2.73390 42 ft 2 kts 58°
2026-04-22 16:56 39.55045 2.73409 40 ft 2 kts 58°
2026-04-22 16:56 39.55047 2.73414 41 ft 0 kts 58°
2026-04-22 16:59 39.55063 2.73447 43 ft 11 kts 57°
2026-04-22 17:00 39.55113 2.73550 41 ft 14 kts 61°
2026-04-22 17:00 39.55212 2.73621 44 ft 11 kts 317°
2026-04-22 17:00 39.55283 2.73554 44 ft 14 kts 328°
2026-04-22 17:01 39.55366 2.73486 44 ft 15 kts 328°
2026-04-22 17:01 39.55467 2.73465 42 ft 16 kts 18°
2026-04-22 17:01 39.55490 2.73520 44 ft 7 kts 89°
2026-04-22 17:01 39.55519 2.73566 43 ft 8 kts
2026-04-22 17:02 39.55577 2.73535 43 ft 10 kts 328°
2026-04-22 17:02 39.55640 2.73501 43 ft 11 kts
2026-04-22 17:02 39.55690 2.73560 43 ft 11 kts 65°
2026-04-22 17:02 39.55726 2.73651 43 ft 12 kts 59°
2026-04-22 17:03 39.55770 2.73748 43 ft 13 kts 59°
2026-04-22 17:03 39.55821 2.73852 41 ft 14 kts 58°
2026-04-22 17:03 39.55902 2.73893 43 ft 15 kts 330°
2026-04-22 17:03 39.55992 2.73824 43 ft 8 kts 330°
2026-04-22 17:04 39.55999 2.73784 43 ft 0 kts 238°
2026-04-22 17:04 39.55918 2.73614 43 ft 56 kts 238°
2026-04-22 17:04 39.55585 2.72909 44 ft 125 kts 238°
2026-04-22 17:04 39.55043 2.71761 152 ft 161 kts 238°
2026-04-22 17:05 39.54472 2.70541 759 ft 158 kts 237°
2026-04-22 17:05 39.53864 2.69339 1249 ft 165 kts 236°
2026-04-22 17:05 39.53227 2.68057 1613 ft 177 kts 238°
2026-04-22 17:05 39.52545 2.66662 2061 ft 189 kts 237°
2026-04-22 17:06 39.51821 2.65173 2534 ft 201 kts 237°
2026-04-22 17:06 39.51045 2.63588 3029 ft 214 kts 238°
2026-04-22 17:06 39.50232 2.61929 3607 ft 221 kts 239°
2026-04-22 17:06 39.49251 2.60302 3990 ft 241 kts 220°
2026-04-22 17:07 39.47786 2.59098 4347 ft 262 kts 210°
2026-04-22 17:07 39.46153 2.57952 4948 ft 271 kts 210°
2026-04-22 17:07 39.44483 2.56773 5698 ft 274 kts 210°
2026-04-22 17:07 39.42743 2.55745 6457 ft 278 kts 195°
2026-04-22 17:08 39.40808 2.55621 7158 ft 283 kts 171°
2026-04-22 17:08 39.38973 2.56554 7844 ft 289 kts 146°
2026-04-22 17:08 39.37582 2.58398 8506 ft 295 kts 121°
2026-04-22 17:08 39.36816 2.60866 9192 ft 299 kts 106°
2026-04-22 17:09 39.35901 2.63273 9845 ft 302 kts 130°
2026-04-22 17:09 39.34426 2.65253 10326 ft 312 kts 138°
2026-04-22 17:09 39.33357 2.66542 10525 ft 323 kts 139°
2026-04-22 17:09 39.31077 2.69289 10886 ft 347 kts 135°
2026-04-22 17:10 39.29552 2.71796 11106 ft 364 kts 118°
2026-04-22 17:10 39.28690 2.74925 11360 ft 377 kts 98°
2026-04-22 17:10 39.28573 2.78276 11869 ft 381 kts 87°
2026-04-22 17:10 39.28648 2.81714 12481 ft 385 kts 86°
2026-04-22 17:11 39.28716 2.85205 13101 ft 390 kts 86°
2026-04-22 17:11 39.28755 2.88725 13716 ft 394 kts 87°
2026-04-22 17:11 39.28795 2.92281 14278 ft 398 kts 84°
2026-04-22 17:11 39.29284 2.95788 14814 ft 397 kts 68°
2026-04-22 17:12 39.30475 2.98986 15364 ft 396 kts 57°
2026-04-22 17:12 39.31900 3.02052 15899 ft 400 kts 56°
2026-04-22 17:12 39.33339 3.05099 16426 ft 404 kts 56°
2026-04-22 17:12 39.34797 3.08233 16971 ft 409 kts 57°
2026-04-22 17:13 39.36260 3.11413 17499 ft 413 kts 57°
2026-04-22 17:13 39.37730 3.14632 18031 ft 417 kts 57°
2026-04-22 17:13 39.39208 3.17889 18522 ft 421 kts 57°
2026-04-22 17:13 39.40693 3.21169 19008 ft 424 kts 57°
2026-04-22 17:14 39.42186 3.24471 19500 ft 426 kts 57°
2026-04-22 17:14 39.43182 3.26673 19829 ft 428 kts 57°
2026-04-22 17:14 39.45212 3.31081 20467 ft 431 kts 56°
2026-04-22 17:14 39.46755 3.34417 20940 ft 433 kts 56°
2026-04-22 17:15 39.47279 3.35556 21102 ft 434 kts 57°
2026-04-22 17:15 39.49339 3.40031 21728 ft 437 kts 56°
2026-04-22 17:15 39.50901 3.43423 22178 ft 440 kts 56°
2026-04-22 17:15 39.52476 3.46852 22627 ft 442 kts 56°
2026-04-22 17:16 39.54053 3.50293 23063 ft 445 kts 56°
2026-04-22 17:16 39.55633 3.53745 23513 ft 447 kts 56°
2026-04-22 17:16 39.57208 3.57187 23877 ft 450 kts 56°
2026-04-22 17:16 39.58826 3.60735 24243 ft 452 kts 56°
2026-04-22 17:17 39.60411 3.64211 24595 ft 454 kts 56°
2026-04-22 17:17 39.62027 3.67759 24945 ft 457 kts 57°
2026-04-22 17:17 39.63650 3.71318 25293 ft 459 kts 57°
2026-04-22 17:17 39.65287 3.74913 25645 ft 461 kts 57°
2026-04-22 17:18 39.66921 3.78507 25982 ft 464 kts 57°
2026-04-22 17:18 39.68566 3.82133 26359 ft 465 kts 57°
2026-04-22 17:18 39.70192 3.85724 26713 ft 467 kts 57°
2026-04-22 17:18 39.71841 3.89366 27050 ft 469 kts 57°
2026-04-22 17:19 39.75161 3.96720 27697 ft 473 kts 57°
2026-04-22 17:19 39.78500 4.04129 28405 ft 474 kts 57°
2026-04-22 17:20 39.81825 4.11522 29228 ft 472 kts 57°
2026-04-22 17:20 39.85540 4.18302 29956 ft 464 kts 40°
2026-04-22 17:21 39.88073 4.20840 30299 ft 456 kts 27°
2026-04-22 17:21 39.93929 4.23548 30979 ft 443 kts
2026-04-22 17:22 39.99988 4.24875 31640 ft 439 kts
2026-04-22 17:22 40.03012 4.25545 31934 ft 438 kts
2026-04-22 17:22 40.08968 4.26928 32490 ft 436 kts
2026-04-22 17:23 40.11953 4.27631 32767 ft 435 kts
2026-04-22 17:23 40.17895 4.29033 33296 ft 433 kts
2026-04-22 17:23 40.20860 4.29734 33528 ft 432 kts
2026-04-22 17:24 40.23819 4.30434 33756 ft 431 kts
2026-04-22 17:24 40.26775 4.31130 33983 ft 431 kts
2026-04-22 17:24 40.32634 4.32517 34061 ft 430 kts
2026-04-22 17:25 40.38518 4.33918 34037 ft 430 kts
2026-04-22 17:25 40.44415 4.35323 34036 ft 430 kts
2026-04-22 17:26 40.50310 4.36728 34038 ft 430 kts
2026-04-22 17:26 40.56209 4.38131 34037 ft 430 kts
2026-04-22 17:27 40.62070 4.39536 34040 ft 430 kts
2026-04-22 17:27 40.67972 4.40949 34039 ft 430 kts
2026-04-22 17:28 40.73870 4.42362 34043 ft 430 kts
2026-04-22 17:28 40.79779 4.43780 34044 ft 430 kts
2026-04-22 17:29 40.85638 4.45188 34052 ft 431 kts
2026-04-22 17:29 40.91533 4.46616 34045 ft 431 kts
2026-04-22 17:30 40.97435 4.48050 34052 ft 431 kts
2026-04-22 17:30 41.03330 4.49481 34050 ft 431 kts
2026-04-22 17:31 41.09230 4.50913 34054 ft 430 kts
2026-04-22 17:31 41.15092 4.52344 34050 ft 430 kts
2026-04-22 17:32 41.20984 4.53777 34051 ft 430 kts
2026-04-22 17:32 41.26888 4.55219 34058 ft 430 kts
2026-04-22 17:33 41.32729 4.56649 34055 ft 429 kts
2026-04-22 17:33 41.38589 4.58087 34071 ft 424 kts
2026-04-22 17:34 41.44395 4.59512 34063 ft 424 kts
2026-04-22 17:34 41.50171 4.60936 34063 ft 424 kts
2026-04-22 17:35 41.55981 4.62370 34062 ft 424 kts
2026-04-22 17:35 41.61789 4.63802 34065 ft 424 kts
2026-04-22 17:36 41.67594 4.65240 34064 ft 423 kts
2026-04-22 17:36 41.73304 4.66995 34067 ft 428 kts 16°
2026-04-22 17:37 41.78610 4.70818 34073 ft 436 kts 26°
2026-04-22 17:37 41.83791 4.75054 34070 ft 436 kts 26°
2026-04-22 17:38 41.88956 4.79233 34083 ft 435 kts 26°
2026-04-22 17:38 41.94164 4.83428 34074 ft 436 kts 26°
2026-04-22 17:39 41.99372 4.87632 34077 ft 436 kts 26°
2026-04-22 17:40 42.07153 4.93940 34077 ft 436 kts 26°
2026-04-22 17:40 42.12355 4.98161 34096 ft 436 kts 25°
2026-04-22 17:41 42.17554 5.02390 34084 ft 436 kts 26°
2026-04-22 17:41 42.22747 5.06629 34086 ft 436 kts 26°
2026-04-22 17:42 42.27938 5.10868 34087 ft 436 kts 26°
2026-04-22 17:42 42.33101 5.15116 34090 ft 436 kts 26°
2026-04-22 17:43 42.38295 5.19401 34098 ft 436 kts 26°
2026-04-22 17:43 42.43481 5.23672 34095 ft 436 kts 26°
2026-04-22 17:44 42.48677 5.27941 34092 ft 436 kts 26°
2026-04-22 17:44 42.53833 5.32189 34104 ft 436 kts 26°
2026-04-22 17:45 42.59008 5.36464 34103 ft 435 kts 26°
2026-04-22 17:45 42.64181 5.40743 34102 ft 435 kts 26°
2026-04-22 17:46 42.69345 5.45027 34106 ft 435 kts 26°
2026-04-22 17:46 42.74515 5.49311 34106 ft 435 kts 26°
2026-04-22 17:47 42.79650 5.53571 34105 ft 435 kts 26°
2026-04-22 17:47 42.84819 5.57875 34105 ft 435 kts 26°
2026-04-22 17:48 42.89094 5.61478 34116 ft 435 kts 26°
2026-04-22 17:48 42.95100 5.66533 34109 ft 433 kts 26°
2026-04-22 17:49 43.00245 5.70839 34115 ft 433 kts 26°
2026-04-22 17:49 43.05374 5.75151 34133 ft 432 kts 26°
2026-04-22 17:50 43.10471 5.79430 34129 ft 432 kts 25°
2026-04-22 17:50 43.15598 5.83746 34126 ft 432 kts 26°
2026-04-22 17:51 43.20718 5.88079 34138 ft 432 kts 26°
2026-04-22 17:51 43.25804 5.92376 34143 ft 432 kts 26°
2026-04-22 17:52 43.30919 5.96726 34165 ft 431 kts 26°
2026-04-22 17:52 43.36014 6.01092 34149 ft 431 kts 25°
2026-04-22 17:53 43.41431 6.04204 34150 ft 416 kts
2026-04-22 17:53 43.47121 6.04899 34162 ft 411 kts 358°
2026-04-22 17:54 43.52829 6.05381 34172 ft 410 kts 359°
2026-04-22 17:54 43.58491 6.05940 34152 ft 410 kts 359°
2026-04-22 17:55 43.63236 6.06414 34158 ft 410 kts 359°
2026-04-22 17:55 43.69860 6.07071 34181 ft 409 kts 359°
2026-04-22 17:56 43.75556 6.07741 34154 ft 412 kts
2026-04-22 17:56 43.81041 6.10415 34166 ft 424 kts 20°
2026-04-22 17:57 43.86305 6.14099 34150 ft 423 kts 20°
2026-04-22 17:57 43.91551 6.17698 34152 ft 422 kts 19°
2026-04-22 17:58 43.96820 6.21310 34149 ft 422 kts 19°
2026-04-22 17:58 44.02087 6.24917 34141 ft 422 kts 19°
2026-04-22 17:59 44.07322 6.28508 34144 ft 421 kts 19°
2026-04-22 17:59 44.12579 6.32129 34135 ft 421 kts 19°
2026-04-22 18:00 44.16979 6.35155 34128 ft 421 kts 19°
2026-04-22 18:00 44.23094 6.39367 34119 ft 421 kts 19°
2026-04-22 18:01 44.28340 6.42982 34132 ft 420 kts 19°
2026-04-22 18:01 44.33576 6.46611 34137 ft 420 kts 19°
2026-04-22 18:02 44.38779 6.50227 34121 ft 417 kts 19°
2026-04-22 18:02 44.43946 6.53823 34139 ft 415 kts 19°
2026-04-22 18:03 44.49083 6.57405 34146 ft 412 kts 19°
2026-04-22 18:03 44.54232 6.60975 34141 ft 413 kts 19°
2026-04-22 18:04 44.59379 6.64587 34133 ft 413 kts 19°
2026-04-22 18:04 44.64518 6.68195 34143 ft 413 kts 19°
2026-04-22 18:05 44.68793 6.71196 34180 ft 413 kts 19°
2026-04-22 18:05 44.74774 6.75408 34150 ft 412 kts 19°
2026-04-22 18:06 44.79124 6.78062 34157 ft 403 kts
2026-04-22 18:06 44.84599 6.78827 34185 ft 393 kts 353°
2026-04-22 18:07 44.90062 6.78408 34176 ft 392 kts 352°
2026-04-22 18:07 44.95481 6.78024 34175 ft 392 kts 353°
2026-04-22 18:08 45.00935 6.77655 34179 ft 393 kts 352°
2026-04-22 18:08 45.06403 6.77292 34174 ft 393 kts 352°
2026-04-22 18:09 45.11871 6.76926 34193 ft 393 kts 353°
2026-04-22 18:09 45.17291 6.76569 34159 ft 392 kts 352°
2026-04-22 18:10 45.22754 6.76207 34158 ft 392 kts 352°
2026-04-22 18:10 45.28196 6.75842 34150 ft 391 kts 352°
2026-04-22 18:11 45.33639 6.75476 34161 ft 391 kts 352°
2026-04-22 18:11 45.39087 6.75109 34167 ft 390 kts 352°
2026-04-22 18:12 45.44498 6.75194 34138 ft 397 kts
2026-04-22 18:12 45.47215 6.76193 34131 ft 408 kts 13°
2026-04-22 18:12 45.49811 6.77966 34142 ft 418 kts 21°
2026-04-22 18:13 45.54827 6.82220 34143 ft 419 kts 22°
2026-04-22 18:13 45.59840 6.86435 34150 ft 415 kts 21°
2026-04-22 18:14 45.64805 6.90571 34150 ft 416 kts 21°
2026-04-22 18:14 45.69805 6.94739 34143 ft 415 kts 21°
2026-04-22 18:15 45.74807 6.98908 34145 ft 416 kts 21°
2026-04-22 18:15 45.79797 7.03056 34136 ft 417 kts 21°
2026-04-22 18:16 45.84787 7.07238 34148 ft 415 kts 21°
2026-04-22 18:16 45.89784 7.11446 34171 ft 415 kts 22°
2026-04-22 18:17 45.94747 7.15632 34163 ft 417 kts 22°
2026-04-22 18:17 45.99761 7.19866 34111 ft 418 kts 22°
2026-04-22 18:18 46.04786 7.24122 34099 ft 419 kts 22°
2026-04-22 18:18 46.09797 7.28381 34082 ft 418 kts 22°
2026-04-22 18:19 46.14811 7.32665 34115 ft 419 kts 22°
2026-04-22 18:19 46.19811 7.36929 34096 ft 420 kts 22°
2026-04-22 18:20 46.24843 7.41230 34081 ft 420 kts 22°
2026-04-22 18:20 46.29874 7.45539 34089 ft 420 kts 22°
2026-04-22 18:21 46.34911 7.49870 34109 ft 420 kts 22°
2026-04-22 18:21 46.39930 7.54184 34134 ft 421 kts 22°
2026-04-22 18:22 46.44973 7.58534 34154 ft 421 kts 23°
2026-04-22 18:22 46.50017 7.62892 34154 ft 421 kts 23°
2026-04-22 18:23 46.55062 7.67255 34155 ft 421 kts 23°
2026-04-22 18:23 46.60082 7.71622 34155 ft 421 kts 24°
2026-04-22 18:24 46.67536 7.78361 34160 ft 422 kts 24°
2026-04-22 18:25 46.75030 7.85174 34165 ft 424 kts 25°
2026-04-22 18:25 46.80000 7.89708 34175 ft 423 kts 25°
2026-04-22 18:26 46.87501 7.96552 34165 ft 423 kts 25°
2026-04-22 18:26 46.92508 8.01139 34201 ft 426 kts 26°
2026-04-22 18:27 46.97510 8.05728 34202 ft 426 kts 26°
2026-04-22 18:27 47.02541 8.10358 34204 ft 427 kts 26°
2026-04-22 18:28 47.07571 8.15005 34207 ft 427 kts 26°
2026-04-22 18:28 47.12602 8.19653 34224 ft 427 kts 26°
2026-04-22 18:29 47.17636 8.24324 34225 ft 427 kts 27°
2026-04-22 18:29 47.22637 8.28972 34245 ft 428 kts 27°
2026-04-22 18:30 47.30186 8.36003 34249 ft 428 kts 27°
2026-04-22 18:31 47.35235 8.40714 34240 ft 428 kts 27°
2026-04-22 18:31 47.40266 8.45417 34235 ft 428 kts 27°
2026-04-22 18:32 47.45267 8.50103 34231 ft 428 kts 27°
2026-04-22 18:32 47.50297 8.54836 34242 ft 428 kts 28°
2026-04-22 18:33 47.55317 8.59567 34226 ft 427 kts 28°
2026-04-22 18:33 47.60332 8.64300 34245 ft 427 kts 28°
2026-04-22 18:34 47.65310 8.69018 34254 ft 427 kts 28°
2026-04-22 18:34 47.70319 8.73768 34261 ft 426 kts 29°
2026-04-22 18:35 47.75312 8.78518 34271 ft 426 kts 29°
2026-04-22 18:35 47.80297 8.83269 34281 ft 425 kts 29°
2026-04-22 18:36 47.85278 8.88033 34279 ft 426 kts 29°
2026-04-22 18:36 47.90267 8.92807 34305 ft 425 kts 30°
2026-04-22 18:37 47.95247 8.97585 34291 ft 425 kts 30°
2026-04-22 18:37 47.99377 9.01563 34292 ft 425 kts 30°
2026-04-22 18:38 48.05196 9.07168 34290 ft 425 kts 30°
2026-04-22 18:38 48.10132 9.11947 34290 ft 425 kts 31°
2026-04-22 18:39 48.17865 9.18244 34288 ft 421 kts 14°
2026-04-22 18:39 48.23644 9.19533 34295 ft 419 kts
2026-04-22 18:40 48.29453 9.20448 34298 ft 420 kts
2026-04-22 18:40 48.35239 9.21404 34295 ft 421 kts
2026-04-22 18:41 48.41077 9.22383 34291 ft 421 kts
2026-04-22 18:41 48.46902 9.23372 34291 ft 421 kts
2026-04-22 18:42 48.52726 9.24366 34291 ft 421 kts
2026-04-22 18:42 48.58512 9.25369 34290 ft 421 kts
2026-04-22 18:43 48.64340 9.26357 34289 ft 421 kts
2026-04-22 18:43 48.70172 9.27211 34291 ft 421 kts
2026-04-22 18:44 48.76006 9.28097 34286 ft 421 kts
2026-04-22 18:44 48.81844 9.29007 34291 ft 421 kts
2026-04-22 18:45 48.87640 9.29909 34291 ft 421 kts
2026-04-22 18:45 48.93476 9.30908 34300 ft 421 kts
2026-04-22 18:46 48.99304 9.31933 34298 ft 421 kts
2026-04-22 18:46 49.05122 9.32984 34300 ft 421 kts
2026-04-22 18:47 49.10930 9.34041 34306 ft 421 kts
2026-04-22 18:47 49.16753 9.35108 34313 ft 421 kts
2026-04-22 18:48 49.22537 9.36170 34310 ft 421 kts
2026-04-22 18:48 49.28349 9.37237 34317 ft 420 kts
2026-04-22 18:49 49.34166 9.38305 34321 ft 421 kts
2026-04-22 18:49 49.39970 9.39376 34313 ft 420 kts
2026-04-22 18:50 49.45746 9.40448 34323 ft 419 kts
2026-04-22 18:50 49.51539 9.41521 34329 ft 419 kts
2026-04-22 18:51 49.57346 9.42601 34331 ft 420 kts
2026-04-22 18:51 49.63163 9.43686 34331 ft 421 kts
2026-04-22 18:52 49.68978 9.44770 34329 ft 421 kts
2026-04-22 18:52 49.73825 9.45676 34330 ft 421 kts
2026-04-22 18:53 49.79643 9.46794 34338 ft 421 kts
2026-04-22 18:53 49.85476 9.47933 34346 ft 423 kts
2026-04-22 18:54 49.91279 9.49026 34355 ft 423 kts
2026-04-22 18:54 49.97130 9.50120 34353 ft 423 kts
2026-04-22 18:55 50.02988 9.51193 34349 ft 423 kts
2026-04-22 18:55 50.08859 9.52295 34344 ft 425 kts
2026-04-22 18:56 50.14735 9.53412 34355 ft 425 kts
2026-04-22 18:56 50.20572 9.54541 34351 ft 425 kts
2026-04-22 18:57 50.26440 9.55697 34349 ft 426 kts
2026-04-22 18:57 50.32349 9.56833 34360 ft 428 kts
2026-04-22 18:58 50.38264 9.57954 34363 ft 428 kts
2026-04-22 18:58 50.44177 9.59086 34363 ft 428 kts
2026-04-22 18:59 50.50094 9.60245 34353 ft 429 kts 10°
2026-04-22 18:59 50.56038 9.61380 34361 ft 430 kts
2026-04-22 19:00 50.61954 9.62513 34368 ft 430 kts
2026-04-22 19:00 50.67897 9.63671 34372 ft 430 kts
2026-04-22 19:01 50.73850 9.64834 34372 ft 430 kts
2026-04-22 19:01 50.79762 9.65988 34371 ft 430 kts
2026-04-22 19:02 50.85707 9.67157 34371 ft 430 kts 10°
2026-04-22 19:02 50.91655 9.68328 34374 ft 430 kts 10°
2026-04-22 19:03 50.97573 9.69495 34371 ft 431 kts 10°
2026-04-22 19:03 51.03528 9.70673 34374 ft 431 kts 10°
2026-04-22 19:04 51.09491 9.71856 34376 ft 431 kts 10°
2026-04-22 19:04 51.15447 9.73038 34375 ft 431 kts 10°
2026-04-22 19:05 51.21324 9.74215 34371 ft 433 kts 11°
2026-04-22 19:05 51.27305 9.75442 34380 ft 434 kts 11°
2026-04-22 19:06 51.33297 9.76633 34379 ft 434 kts 11°
2026-04-22 19:07 51.42255 9.78419 34367 ft 434 kts 11°
2026-04-22 19:07 51.48271 9.79661 34380 ft 436 kts 11°
2026-04-22 19:08 51.54298 9.80884 34383 ft 436 kts 11°
2026-04-22 19:08 51.60311 9.82114 34387 ft 436 kts 11°
2026-04-22 19:09 51.66308 9.83339 34380 ft 437 kts 12°
2026-04-22 19:09 51.72362 9.84561 34388 ft 438 kts 12°
2026-04-22 19:10 51.78419 9.85780 34389 ft 438 kts 12°
2026-04-22 19:10 51.84464 9.87053 34391 ft 438 kts 13°
2026-04-22 19:11 51.90490 9.88502 34383 ft 438 kts 14°
2026-04-22 19:11 51.96487 9.89974 34387 ft 439 kts 14°
2026-04-22 19:12 52.02533 9.91452 34392 ft 439 kts 14°
2026-04-22 19:12 52.08577 9.92923 34387 ft 439 kts 14°
2026-04-22 19:13 52.14624 9.94418 34379 ft 440 kts 15°
2026-04-22 19:13 52.20659 9.95908 34385 ft 440 kts 15°
2026-04-22 19:14 52.26751 9.97393 34380 ft 440 kts 15°
2026-04-22 19:14 52.32786 9.98874 34379 ft 440 kts 15°
2026-04-22 19:15 52.37816 10.00128 34361 ft 441 kts 16°
2026-04-22 19:15 52.41864 10.01125 34016 ft 436 kts 16°
2026-04-22 19:15 52.44901 10.01880 32661 ft 447 kts 15°
2026-04-22 19:15 52.48016 10.02657 31377 ft 457 kts 14°
2026-04-22 19:16 52.51184 10.03438 30331 ft 461 kts 13°
2026-04-22 19:16 52.54343 10.04210 29436 ft 457 kts 13°
2026-04-22 19:16 52.57426 10.04965 28775 ft 449 kts 13°
2026-04-22 19:16 52.60485 10.05722 28174 ft 441 kts 13°
2026-04-22 19:17 52.63496 10.06474 27465 ft 436 kts 13°
2026-04-22 19:17 52.66484 10.07230 26710 ft 432 kts 13°
2026-04-22 19:17 52.69451 10.07975 25962 ft 430 kts 12°
2026-04-22 19:17 52.72404 10.08714 25256 ft 426 kts 12°
2026-04-22 19:18 52.75321 10.09446 24594 ft 421 kts 11°
2026-04-22 19:18 52.78202 10.10179 23945 ft 417 kts 11°
2026-04-22 19:18 52.81061 10.10906 23190 ft 413 kts 11°
2026-04-22 19:18 52.83887 10.11616 22462 ft 408 kts 10°
2026-04-22 19:19 52.86684 10.12314 21775 ft 403 kts 10°
2026-04-22 19:19 52.89445 10.13007 21114 ft 398 kts 10°
2026-04-22 19:19 52.92133 10.13687 20489 ft 394 kts 10°
2026-04-22 19:19 52.94826 10.14369 19870 ft 389 kts 10°
2026-04-22 19:20 52.97484 10.15044 19271 ft 385 kts 10°
2026-04-22 19:20 53.00115 10.15713 18676 ft 380 kts 10°
2026-04-22 19:20 53.02719 10.16376 18025 ft 376 kts 10°
2026-04-22 19:20 53.05290 10.17033 17382 ft 371 kts 10°
2026-04-22 19:21 53.07836 10.17685 16751 ft 367 kts 10°
2026-04-22 19:21 53.10354 10.18327 16145 ft 364 kts 10°
2026-04-22 19:21 53.12811 10.18956 15564 ft 360 kts 10°
2026-04-22 19:21 53.15273 10.19585 15018 ft 355 kts 10°
2026-04-22 19:22 53.17701 10.20207 14516 ft 350 kts 10°
2026-04-22 19:22 53.20121 10.20829 14018 ft 344 kts 10°
2026-04-22 19:22 53.22436 10.21425 13498 ft 339 kts 10°
2026-04-22 19:22 53.24750 10.22021 12981 ft 333 kts 10°
2026-04-22 19:23 53.27030 10.22608 12470 ft 329 kts
2026-04-22 19:23 53.29276 10.23188 11967 ft 325 kts
2026-04-22 19:23 53.31502 10.23766 11459 ft 321 kts
2026-04-22 19:23 53.33683 10.24336 11050 ft 314 kts
2026-04-22 19:24 53.35800 10.24898 10829 ft 301 kts
2026-04-22 19:24 53.37820 10.25433 10674 ft 287 kts
2026-04-22 19:24 53.39742 10.25933 10538 ft 273 kts
2026-04-22 19:24 53.41560 10.26402 10347 ft 263 kts
2026-04-22 19:25 53.43353 10.26860 9955 ft 260 kts
2026-04-22 19:25 53.45137 10.27321 9517 ft 258 kts
2026-04-22 19:25 53.46906 10.27779 9108 ft 256 kts
2026-04-22 19:25 53.48660 10.28236 8695 ft 254 kts
2026-04-22 19:26 53.50408 10.28691 8285 ft 253 kts
2026-04-22 19:26 53.52141 10.29139 7883 ft 251 kts
2026-04-22 19:26 53.53863 10.29585 7485 ft 250 kts
2026-04-22 19:26 53.55578 10.30037 7093 ft 248 kts
2026-04-22 19:27 53.57287 10.30491 6705 ft 247 kts
2026-04-22 19:27 53.58983 10.30937 6301 ft 245 kts
2026-04-22 19:27 53.60642 10.31376 5898 ft 244 kts
2026-04-22 19:27 53.62333 10.31822 5492 ft 242 kts
2026-04-22 19:28 53.63980 10.32256 5099 ft 241 kts
2026-04-22 19:28 53.65639 10.32691 4689 ft 241 kts
2026-04-22 19:28 53.67297 10.33124 4278 ft 240 kts
2026-04-22 19:28 53.68946 10.33553 3881 ft 240 kts
2026-04-22 19:29 53.70591 10.33984 3495 ft 239 kts
2026-04-22 19:29 53.72208 10.34415 3183 ft 235 kts
2026-04-22 19:29 53.73781 10.34193 2959 ft 221 kts 337°
2026-04-22 19:29 53.74945 10.32736 2919 ft 200 kts 306°
2026-04-22 19:30 53.75323 10.31349 2917 ft 198 kts 283°
2026-04-22 19:30 53.75249 10.28214 2979 ft 202 kts 264°
2026-04-22 19:30 53.75035 10.25875 2987 ft 200 kts 264°
2026-04-22 19:30 53.74809 10.23723 3011 ft 176 kts 258°
2026-04-22 19:31 53.74283 10.21859 2999 ft 176 kts 241°
2026-04-22 19:31 53.73548 10.20191 2995 ft 178 kts 235°
2026-04-22 19:31 53.72772 10.18603 2885 ft 177 kts 234°
2026-04-22 19:31 53.71986 10.17000 2690 ft 177 kts 235°
2026-04-22 19:32 53.71199 10.15398 2452 ft 176 kts 234°
2026-04-22 19:32 53.70420 10.13814 2214 ft 174 kts 235°
2026-04-22 19:32 53.69644 10.12234 1959 ft 175 kts 235°
2026-04-22 19:32 53.68870 10.10661 1727 ft 171 kts 235°
2026-04-22 19:33 53.68146 10.09192 1511 ft 159 kts 236°
2026-04-22 19:33 53.67483 10.07846 1309 ft 139 kts 236°
2026-04-22 19:33 53.66892 10.06643 1114 ft 137 kts 237°
2026-04-22 19:33 53.66281 10.05402 919 ft 134 kts 236°
2026-04-22 19:34 53.65689 10.04200 745 ft 132 kts 235°
2026-04-22 19:34 53.65106 10.03016 558 ft 131 kts 233°
2026-04-22 19:34 53.64521 10.01833 337 ft 132 kts 233°
2026-04-22 19:34 53.63940 10.00648 204 ft 131 kts 233°
2026-04-22 19:35 53.63358 9.99481 63 ft 126 kts 234°
2026-04-22 19:35 53.62861 9.98468 49 ft 82 kts 232°
2026-04-22 19:35 53.62684 9.98108 47 ft 51 kts 230°
2026-04-22 19:35 53.62542 9.97819 46 ft 14 kts 225°
2026-04-22 19:36 53.62449 9.97813 48 ft 16 kts 140°
2026-04-22 19:36 53.62434 9.97974 52 ft 15 kts 70°
2026-04-22 19:36 53.62485 9.98136 52 ft 17 kts 51°
2026-04-22 19:36 53.62561 9.98294 52 ft 18 kts 50°
2026-04-22 19:37 53.62645 9.98462 52 ft 19 kts 49°
2026-04-22 19:37 53.62734 9.98642 52 ft 21 kts 50°
2026-04-22 19:37 53.62825 9.98826 52 ft 21 kts 50°
2026-04-22 19:37 53.62917 9.99011 52 ft 19 kts 49°
2026-04-22 19:38 53.62999 9.99175 52 ft 13 kts 52°
2026-04-22 19:38 53.63049 9.99282 52 ft 11 kts 53°
2026-04-22 19:38 53.63075 9.99343 52 ft 0 kts 56°
2026-04-22 19:39 53.63080 9.99356 52 ft 4 kts 56°
2026-04-22 19:39 53.63116 9.99442 51 ft 12 kts 55°
2026-04-22 19:40 53.63169 9.99565 52 ft 14 kts 49°
2026-04-22 19:40 53.63226 9.99708 54 ft 16 kts 86°
2026-04-22 19:40 53.63152 9.99823 54 ft 14 kts 153°
2026-04-22 19:40 53.63084 9.99881 54 ft 9 kts 153°
2026-04-22 19:41 53.63039 9.99919 54 ft 5 kts 152°
2026-04-22 19:41 53.63021 9.99935 54 ft 0 kts 152°
2026-04-22 19:43 53.63018 9.99938 54 ft 3 kts 152°
2026-04-22 19:44 53.62989 9.99964 52 ft 6 kts 152°
2026-04-22 19:44 53.62947 10.00010 54 ft 8 kts 132°
2026-04-22 19:44 53.62950 10.00099 54 ft 7 kts 66°
2026-04-22 19:44 53.62947 10.00194 54 ft 9 kts 99°
2026-04-22 19:45 53.62932 10.00261 54 ft 5 kts 107°
2026-04-22 19:45 53.62931 10.00268 54 ft 0 kts 108°
2026-04-22 19:45 53.62930 10.00274 54 ft 2 kts 108°
2026-04-22 19:45 53.62928 10.00285 54 ft 0 kts 108°